Location: Bow
(51.5261°N, 0.0167°W)
Time: 22:06:32
(UTC+00:00)

In-Cosmos 22 - Pass Details

Date: 18 September 2020
Orbit: 785 x 877 km, 81.2° (Epoch: 20 October)

Event Time Altitude Azimuth Distance (km) Brightness Sun altitude
Rises 19:07:08 0° 349° (N) 3,291 7.7 -10.1°
Reaches altitude 10° 19:09:33 10° 353° (N) 2,357 6.8 -10.5°
Maximum altitude 19:14:47 60° 73° (ENE) 903 4.1 -11.2°
Drops below altitude 10° 19:20:03 10° 154° (SSE) 2,362 6.1 -12.0°
Enters shadow 19:21:27 - 156° (SSE) 2,904 6.6 -12.2°
